EW4388 Bari IT current weather conditions

sailwx.info

Wind from 278

Air temperature 5.6° C
Dewpoint 3.4° C

Last reported at 2020-Jan-21 05:00 UTC.
Time now 2020-Jan-21 06:12 UTC

Location: N 41°05' E 016°52'.
View on Google Maps.

See reports from other nearby stations

  
Tides and Currents Weather Stations Pressure Air Temp Water Temp Dewpoint Dewpoint Depression Visibility Wind Speed Wind Dir Waves Ship Positions
date/time (UTC)wind fromknots sea level pressurealtimeterstation pressurevisibilityair tempwater tempwave heightnotes
2020-Jan-21 05:00 278 5.6
2020-Jan-21 04:46 234 0 gusting 3 5.6
2020-Jan-21 04:31 230 0 gusting 4 5.0
2020-Jan-21 04:15 239 1 gusting 4 5.0
2020-Jan-21 04:00 235 1 gusting 3 5.0
2020-Jan-21 03:45 276 0 gusting 3 5.0
2020-Jan-21 03:30 235 0 gusting 3 5.0
2020-Jan-21 03:16 233 0 gusting 3 5.6
2020-Jan-21 03:00 228 0 gusting 4 5.6
2020-Jan-21 02:45 264 6.1
2020-Jan-21 02:30 244 6.1
2020-Jan-21 02:15 230 6.1
2020-Jan-21 02:00 215 6.7
2020-Jan-21 01:45 253 7.2
2020-Jan-21 01:30 314 0 gusting 4 7.2
2020-Jan-21 01:15 221 7.2
2020-Jan-21 01:04 252 7.2
2020-Jan-21 00:47 243 7.8
2020-Jan-21 00:32 221 8.3
2020-Jan-21 00:17 224 8.3
2020-Jan-20 23:46 243 8.9
2020-Jan-20 23:32 249 8.9
2020-Jan-20 23:17 241 9.4
2020-Jan-20 23:02 238 9.4
2020-Jan-20 22:47 298 10.0
2020-Jan-20 22:32 296 9.4
2020-Jan-20 22:16 333 9.4
2020-Jan-20 22:04 333 10.0
2020-Jan-20 21:47 333 10.6
2020-Jan-20 21:31 326 10.6
2020-Jan-20 21:16 337 10.6
2020-Jan-20 21:01 041 0 gusting 4 10.6
2020-Jan-20 20:47 357 0 gusting 6 10.6
2020-Jan-20 20:33 355 2 gusting 6 10.6
2020-Jan-20 20:16 004 1 gusting 4 10.6
2020-Jan-20 20:01 315 0 gusting 4 10.0
2020-Jan-20 19:48 100 9.4
2020-Jan-20 19:31 100 9.4
2020-Jan-20 19:16 100 9.4
2020-Jan-20 19:02 100 9.4
2020-Jan-20 18:46 100 9.4
2020-Jan-20 18:31 100 9.4
2020-Jan-20 18:15 100 9.4
2020-Jan-20 18:00 100 10.0
2020-Jan-20 17:46 046 10.0
2020-Jan-20 17:31 046 10.0
2020-Jan-20 17:15 046 10.0
2020-Jan-20 17:01 045 10.0
2020-Jan-20 16:45 037 10.0
2020-Jan-20 16:31 044 10.0
2020-Jan-20 16:16 233 10.0
2020-Jan-20 16:01 072 1 gusting 4 10.0
2020-Jan-20 15:46 037 10.6
2020-Jan-20 15:30 037 10.6
2020-Jan-20 15:15 037 10.6
2020-Jan-20 15:00 037 10.6
2020-Jan-20 14:30 037 10.6
2020-Jan-20 14:15 031 0 gusting 2 10.6
2020-Jan-20 14:00 354 0 gusting 3 11.1
2020-Jan-20 13:45 061 11.1
2020-Jan-20 13:30 096 10.6
2020-Jan-20 13:15 051 10.6
2020-Jan-20 13:00 051 10.6
2020-Jan-20 12:45 315 11.1
2020-Jan-20 12:30 314 11.1
2020-Jan-20 12:15 111 11.1
2020-Jan-20 12:00 111 10.6
2020-Jan-20 11:45 111 10.6
2020-Jan-20 11:30 113 10.6
2020-Jan-20 11:15 113 10.6
2020-Jan-20 11:00 352 11.1
2020-Jan-20 10:45 346 10.6
2020-Jan-20 10:32 307 11.1
2020-Jan-20 10:17 323 2 gusting 6 11.1
2020-Jan-20 10:02 322 2 gusting 6 11.7
2020-Jan-20 09:46 313 1 gusting 5 11.7
2020-Jan-20 09:31 327 0 gusting 4 11.1
2020-Jan-20 09:16 003 0 gusting 4 10.6
2020-Jan-20 09:01 069 0 gusting 3 10.0
2020-Jan-20 08:47 251 9.4
2020-Jan-20 08:32 292 9.4
2020-Jan-20 08:16 240 8.9
2020-Jan-20 08:03 230 8.3
2020-Jan-20 07:46 200 8.3
2020-Jan-20 07:31 248 7.8
2020-Jan-20 07:16 242 7.8
2020-Jan-20 07:01 229 7.8
2020-Jan-20 06:45 229 7.8
2020-Jan-20 06:30 261 7.2
2020-Jan-20 06:16 282 7.2
2020-Jan-20 06:01 216 6.7
2020-Jan-20 05:45 250 6.7
2020-Jan-20 05:30 098 6.7
2020-Jan-20 05:15 293 6.1
2020-Jan-20 05:00 235 6.1
2020-Jan-20 04:45 218 6.1
2020-Jan-20 04:30 223 6.1
2020-Jan-20 04:15 277 6.1
2020-Jan-20 04:00 245 6.1
2020-Jan-20 03:45 221 6.7
2020-Jan-20 03:30 281 6.7
2020-Jan-20 03:16 229 7.2
2020-Jan-20 03:00 243 7.2
2020-Jan-20 02:48 283 7.2
2020-Jan-20 02:32 245 7.8
2020-Jan-20 02:17 216 7.8
2020-Jan-20 02:02 266 7.8
2020-Jan-20 01:47 272 8.3
2020-Jan-20 01:32 252 8.3
2020-Jan-20 01:17 226 8.3
2020-Jan-20 01:01 225 8.3
2020-Jan-20 00:46 255 8.3
2020-Jan-20 00:31 245 8.3
2020-Jan-20 00:17 262 8.3
2020-Jan-20 00:00 237 8.3
2020-Jan-19 23:47 229 8.3
2020-Jan-19 23:31 297 8.3
2020-Jan-19 23:16 354 8.3
2020-Jan-19 23:00 327 8.3
2020-Jan-19 22:46 234 8.3
2020-Jan-19 22:30 294 8.3
2020-Jan-19 22:16 330 8.3
2020-Jan-19 22:00 215 0 gusting 3 8.3
2020-Jan-19 21:46 228 8.3
2020-Jan-19 21:31 237 8.3
2020-Jan-19 21:15 226 8.3
2020-Jan-19 21:01 274 8.3
2020-Jan-19 20:46 143 8.3
2020-Jan-19 20:30 005 8.3
2020-Jan-19 20:15 214 8.3
2020-Jan-19 20:01 230 8.3
2020-Jan-19 19:45 282 0 gusting 4 8.9
2020-Jan-19 19:30 218 8.9
2020-Jan-19 19:15 277 8.9
2020-Jan-19 19:00 226 8.9
2020-Jan-19 18:45 214 8.9
2020-Jan-19 18:30 247 8.9
2020-Jan-19 18:15 214 8.9
2020-Jan-19 18:00 274 8.9
2020-Jan-19 17:32 231 8.9
2020-Jan-19 17:17 210 9.4
2020-Jan-19 17:02 290 9.4
2020-Jan-19 16:47 015 9.4
2020-Jan-19 16:32 210 9.4
2020-Jan-19 16:17 229 9.4
2020-Jan-19 16:02 243 10.0
2020-Jan-19 15:46 316 10.0
2020-Jan-19 15:32 248 10.0
2020-Jan-19 15:16 349 10.0
2020-Jan-19 15:01 326 0 gusting 2 10.0
2020-Jan-19 14:46 266 10.0
2020-Jan-19 14:31 324 10.0
2020-Jan-19 14:16 289 2 gusting 9 10.0
2020-Jan-19 14:01 251 5 gusting 15 11.1
2020-Jan-19 13:47 294 5 gusting 12 12.2
2020-Jan-19 13:32 038 2 gusting 8 12.2
2020-Jan-19 13:16 007 1 gusting 8 12.2
2020-Jan-19 13:01 188 0 gusting 6 12.2
2020-Jan-19 12:46 005 2 gusting 6 12.2
2020-Jan-19 12:30 003 2 gusting 8 12.2
2020-Jan-19 12:17 184 0 gusting 11 12.2
2020-Jan-19 12:01 274 1 gusting 6 12.2
2020-Jan-19 11:45 212 2 gusting 8 12.2
2020-Jan-19 11:30 328 3 gusting 10 12.2
2020-Jan-19 11:15 173 1 gusting 9 12.2
2020-Jan-19 11:01 302 0 gusting 6 12.8
2020-Jan-19 10:46 313 1 gusting 5 12.8
2020-Jan-19 10:30 148 0 gusting 7 12.8
2020-Jan-19 10:15 016 1 gusting 6 12.8
2020-Jan-19 10:00 352 1 gusting 6 12.2
2020-Jan-19 09:45 217 1 gusting 7 11.7
2020-Jan-19 09:30 333 1 gusting 9 11.7
2020-Jan-19 09:15 004 1 gusting 6 11.7
2020-Jan-19 09:00 327 0 gusting 6 11.1
2020-Jan-19 08:45 278 1 gusting 4 10.6
2020-Jan-19 08:30 297 10.0
2020-Jan-19 08:17 296 1 gusting 5 9.4
2020-Jan-19 08:02 294 0 gusting 3 8.3
2020-Jan-19 07:46 360 8.3
2020-Jan-19 07:31 230 7.8
2020-Jan-19 07:18 278 0 gusting 5 6.7
2020-Jan-19 07:01 238 1 gusting 3 6.7
2020-Jan-19 06:46 248 1 gusting 4 6.1
2020-Jan-19 06:32 256 0 gusting 3 6.1
2020-Jan-19 06:16 249 0 gusting 5 6.1
2020-Jan-19 06:01 225 0 gusting 3 6.1